Hourly Data Report for June 25, 2021

WINNIPEG THE FORKS
MANITOBA
Current Station Operator: ECCC - MSC

49°53'18.008" N
97°07'46.007" W
230.00 m
5023262
71579
XWN

Download Data

Hourly Data (June 2021)
Hourly Data Report for June 25, 2021
TIME
LST
Temp Definition
°C
Dew Point Definition
°C
Rel Hum Definition
%
Precip. Amount Definition
mm

Wind Dir Definition
10's deg

Wind Spd Definition
km/h
Visibility Definition
km
Stn Press Definition
kPa
Hmdx Definition


Wind Chill Definition


Weather Definition


00:00 20.6 8.3 45 0.0 23 3   98.53     LegendNANA
01:00 19.8 8.6 48 0.0 23 3   98.52     LegendNANA
02:00 20.1 8.0 46 0.0 26 5   98.51     LegendNANA
03:00 19.9 9.1 50 0.0 26 5   98.49     LegendNANA
04:00 19.0 9.6 54 0.0 26 6   98.50     LegendNANA
05:00 17.8 10.1 61 0.0 19 3   98.51     LegendNANA
06:00 16.7 10.3 66 0.0 22 6   98.55     LegendNANA
07:00 16.8 10.8 68 0.0 22 7   98.60     LegendNANA
08:00 18.8 11.9 64 0.0 22 6   98.56     LegendNANA
09:00 20.5 12.3 59 0.0 23 8   98.55     LegendNANA
10:00 22.0 12.3 54 0.0 24 7   98.54     LegendNANA
11:00 22.9 11.6 49 0.0 25 8   98.52 25   LegendNANA
12:00 23.9 11.4 46 0.0 22 8   98.48 26   LegendNANA
13:00 24.6 10.8 42 0.0 24 7   98.47 26   LegendNANA
14:00 25.6 10.7 39 0.0 22 11   98.42 27   LegendNANA
15:00 26.2 10.3 37 0.0 24 7   98.40 28   LegendNANA
16:00 25.2 9.9 38 0.0 21 14   98.38 26   LegendNANA
17:00 24.4 11.4 44 0.0 21 12   98.38 26   LegendNANA
18:00 23.5 12.3 49 0.0 21 12   98.34 26   LegendNANA
19:00 22.0 13.4 58 0.0 20 14   98.32 25   LegendNANA
20:00 20.7 13.2 62 0.0 21 12   98.32     LegendNANA
21:00 19.4 13.5 69 0.0 19 6   98.32     LegendNANA
22:00 18.4 13.5 73 0.0 21 12   98.40     LegendNANA
23:00 17.4 13.9 79 0.0 20 10   98.37     LegendNANA

Notes on Data Quality.

Legend

  • E = Estimated
  • M = Missing
  • NA = Not Available*
  • [empty] = Indicates an unobserved value
Date modified: